Dickinson, ND

9:51 AM MDT on August 19, 2017 (GMT -0600)
Dickinson Municipal

Weather History for KDIK - August, 2013

Change the Weather History Date:

Tuesday, August 20, 2013

  Actual Average Record
Temperature  
Mean Temperature 75 °F 68 °F  
Max Temperature 93 °F 83 °F 98 °F (1903)
Min Temperature 56 °F 53 °F 33 °F (1895)
Degree Days  
Heating Degree Days 0 2  
Month to date heating degree days 8 23  
Since 1 June heating degree days 164 194  
Since 1 July heating degree days 40 57  
Cooling Degree Days 10 5  
Month to date cooling degree days 61 114  
Year to date cooling degree days 204 343  
Since 1 June cooling degree days 195 333  
Growing Degree Days 24 (Base 50)    
Moisture  
Dew Point 52 °F    
Average Humidity 55    
Maximum Humidity 84    
Minimum Humidity 25    
Precipitation  
Precipitation 0.00 in 0.04 in 1.24 in (1918)
Month to date precipitation 1.67 0.99  
Year to date precipitation 13.17 11.74  
Sea Level Pressure  
Sea Level Pressure 29.79 in    
Wind  
Wind Speed 8 mph (NW)    
Max Wind Speed 16 mph    
Max Gust Speed 21 mph    
Visibility 10 miles    
Events      
T = Trace of Precipitation, MM = Missing Value Source: NWS Daily Summary

Daily Weather History Graph

Daily Weather History Graph

Search for Another Location

Airport or City:

Trip Planner

Search our weather history database for the weather conditions in past years. The results will help you decide how hot, cold, wet, or windy it might be!

Date:

Astronomy

Aug. 20, 2013 Rise Set
Actual Time 5:55 AM MDT 7:52 PM MDT
Civil Twilight 5:23 AM MDT 8:24 PM MDT
Nautical Twilight 4:42 AM MDT 9:04 PM MDT
Astronomical Twilight 3:58 AM MDT 9:48 PM MDT
Moon 7:20 PM MDT (8/20) 5:30 AM MDT (8/20)
Length of Visible Light 15h 01m
Length of Day
13h 56m
Full, 100% of the Moon is Illuminated
Aug 20
Full
Aug 20
Full
Aug 28
Last Quarter
Sep 5
New
Sep 12
First Quarter

Hourly Weather History & Observations

Time (MDT) Temp. Heat Index Dew Point Humidity Pressure Visibility Wind Dir Wind Speed Gust Speed Precip Events Conditions
12:56 AM 60.1 °F - 51.1 °F 72% 29.78 in 10.0 mi Calm Calm - N/A   Clear
1:56 AM 57.9 °F - 52.0 °F 81% 29.77 in 10.0 mi South 6.9 mph - N/A   Clear
2:56 AM 61.0 °F - 52.0 °F 72% 29.75 in 10.0 mi Calm Calm - N/A   Clear
3:56 AM 60.1 °F - 52.0 °F 75% 29.74 in 10.0 mi South 3.5 mph - N/A   Clear
4:56 AM 60.1 °F - 53.1 °F 78% 29.75 in 10.0 mi South 3.5 mph - N/A   Clear
5:56 AM 57.0 °F - 52.0 °F 83% 29.76 in 10.0 mi Calm Calm - N/A   Clear
6:56 AM 60.1 °F - 55.0 °F 83% 29.77 in 10.0 mi Calm Calm - N/A   Clear
7:56 AM 69.1 °F - 57.9 °F 68% 29.77 in 10.0 mi Calm Calm - N/A   Clear
8:56 AM 79.0 °F - 59.0 °F 50% 29.77 in 10.0 mi WSW 8.1 mph - N/A   Clear
9:56 AM 86.0 °F 84.5 °F 55.0 °F 35% 29.77 in 10.0 mi West 12.7 mph - N/A   Clear
10:56 AM 88.0 °F 85.7 °F 53.1 °F 30% 29.78 in 10.0 mi WNW 8.1 mph - N/A   Clear
11:56 AM 90.0 °F - 52.0 °F 27% 29.78 in 10.0 mi NW 12.7 mph - N/A   Clear
12:56 PM 91.0 °F - 51.1 °F 25% 29.78 in 10.0 mi NNW 12.7 mph - N/A   Clear
1:56 PM 91.9 °F - 50.0 °F 24% 29.79 in 10.0 mi WNW 11.5 mph 20.7 mph N/A   Clear
2:56 PM 91.9 °F - 51.1 °F 25% 29.78 in 10.0 mi NW 12.7 mph - N/A   Clear
3:56 PM 91.9 °F - 50.0 °F 24% 29.77 in 10.0 mi NW 11.5 mph 18.4 mph N/A   Clear
4:56 PM 89.1 °F - 50.0 °F 26% 29.78 in 10.0 mi WNW 11.5 mph - N/A   Clear
5:56 PM 86.0 °F - 48.9 °F 28% 29.78 in 10.0 mi NW 10.4 mph - N/A   Clear
6:56 PM 82.9 °F - 48.9 °F 31% 29.80 in 10.0 mi NNW 6.9 mph - N/A   Clear
7:56 PM 77.0 °F - 50.0 °F 39% 29.81 in 10.0 mi NNW 8.1 mph - N/A   Clear
8:56 PM 73.9 °F - 48.0 °F 40% 29.83 in 10.0 mi North 6.9 mph - N/A   Clear
9:56 PM 70.0 °F - 48.9 °F 47% 29.83 in 10.0 mi North 6.9 mph - N/A   Clear
10:56 PM 68.0 °F - 51.1 °F 55% 29.85 in 10.0 mi North 9.2 mph - N/A   Clear
11:56 PM 66.9 °F - 54.0 °F 63% 29.85 in 10.0 mi NNE 10.4 mph - N/A   Clear